EW6800 Weather Reports


Display with metric or nautical units.
time (UTC)temp
F
wind
direction
speed
MPH
gust
MPH
rain 1hr
in
rain 24hr
in
rain mn
in
humidity
%
barometer
mb
20260904212043 68 47 0.0 3.0 0.00 0.06 0.01 47 1015.4
20260904211608 67 0 1.0 8.0 0.00 0.06 0.01 47 1015.3
20260904211046 67 308 1.0 8.0 0.00 0.06 0.01 46 1015.4
20260904210544 67 308 4.0 8.0 0.00 0.06 0.01 44 1015.3
20260904210056 67 322 1.0 6.0 0.00 0.06 0.01 46 1015.3
20260904205546 67 323 2.0 7.0 0.00 0.06 0.01 48 1015.3
20260904205044 67 327 2.0 7.0 0.00 0.06 0.01 49 1015.3
20260904204558 67 0 0.0 4.0 0.00 0.06 0.01 49 1015.3
20260904204045 66 342 2.0 8.0 0.00 0.06 0.01 47 1015.3
20260904203548 66 325 3.0 8.0 0.00 0.06 0.01 48 1015.3
20260904203114 65 306 2.0 8.0 0.00 0.06 0.01 54 1015.3
20260904202541 65 315 2.0 7.0 0.00 0.06 0.01 52 1015.2
20260904202044 66 294 1.0 5.0 0.00 0.06 0.01 54 1015.2
20260904201600 66 298 2.0 4.0 0.00 0.06 0.01 56 1015.1
20260904201044 65 329 2.0 4.0 0.00 0.06 0.01 59 1015.1
20260904200543 65 319 1.0 5.0 0.00 0.06 0.01 57 1015.1
20260904200120 65 310 2.0 5.0 0.00 0.06 0.01 58 1015.2
20260904195545 64 310 2.0 9.0 0.00 0.06 0.01 58 1015.1
20260904195045 64 285 2.0 9.0 0.00 0.06 0.01 59 1015.2
20260904194606 65 311 4.0 9.0 0.00 0.06 0.01 58 1015.2
20260904194044 64 325 1.0 7.0 0.00 0.06 0.01 60 1015.2
20260904193546 64 310 4.0 7.0 0.00 0.06 0.01 58 1015.3
20260904193101 64 209 2.0 9.0 0.00 0.06 0.01 61 1015.3
20260904192543 65 312 3.0 9.0 0.00 0.06 0.01 59 1015.3
20260904192043 64 289 1.0 4.0 0.00 0.06 0.01 61 1015.4
20260904191600 64 239 1.0 4.0 0.00 0.06 0.01 62 1015.5
20260904191043 63 0 1.0 4.0 0.00 0.06 0.01 62 1015.6
20260904190546 63 331 1.0 3.0 0.00 0.06 0.01 63 1015.6
20260904190058 63 0 1.0 4.0 0.00 0.06 0.01 62 1015.5
20260904185546 62 331 1.0 4.0 0.00 0.06 0.01 62 1015.7
20260904185044 62 334 1.0 5.0 0.00 0.06 0.01 63 1015.7
20260904184554 61 0 2.0 5.0 0.00 0.06 0.01 63 1015.8
20260904184044 61 315 2.0 5.0 0.00 0.06 0.01 61 1015.8
20260904183544 61 314 1.0 5.0 0.00 0.06 0.01 63 1015.7
20260904183101 61 315 2.0 5.0 0.00 0.06 0.01 65 1015.7
20260904182544 61 332 2.0 5.0 0.00 0.06 0.01 67 1015.7
20260904182043 61 329 2.0 4.0 0.00 0.06 0.01 66 1015.7
20260904181557 60 323 2.0 4.0 0.00 0.06 0.01 69 1015.7
20260904181043 60 321 1.0 4.0 0.00 0.06 0.01 68 1015.7
20260904180546 60 294 1.0 3.0 0.00 0.06 0.01 69 1015.7
20260904180107 60 254 1.0 5.0 0.00 0.06 0.01 71 1015.7
20260904175543 60 238 2.0 5.0 0.00 0.06 0.01 70 1015.7
20260904175044 60 0 0.0 0.0 0.00 0.06 0.01 71 1015.6
20260904174607 59 0 0.0 1.0 0.00 0.06 0.01 70 1015.8
20260904174043 59 0 0.0 1.0 0.00 0.06 0.01 70 1015.7
20260904173545 59 0 0.0 1.0 0.00 0.06 0.01 70 1015.7
20260904173102 58 0 0.0 1.0 0.00 0.06 0.01 71 1015.6
20260904172545 58 0 0.0 0.0 0.00 0.06 0.01 72 1015.5
20260904172043 58 0 0.0 0.0 0.00 0.06 0.01 74 1015.4
20260904171603 58 0 0.0 2.0 0.00 0.06 0.01 75 1015.4
20260904171043 57 0 0.0 3.0 0.00 0.06 0.01 73 1015.4
20260904170543 57 311 1.0 3.0 0.00 0.06 0.01 73 1015.4
20260904170059 57 325 1.0 3.0 0.00 0.06 0.01 77 1015.4
20260904165543 57 325 0.0 3.0 0.00 0.06 0.01 78 1015.4
20260904165044 57 325 0.0 3.0 0.00 0.06 0.01 79 1015.2
20260904164556 57 325 0.0 3.0 0.00 0.06 0.01 78 1015.2
20260904164044 57 325 1.0 4.0 0.00 0.06 0.01 78 1015.1
20260904163544 57 325 1.0 4.0 0.00 0.06 0.01 79 1015.0
20260904163101 57 325 2.0 4.0 0.00 0.06 0.01 79 1015.0
20260904162544 57 325 1.0 4.0 0.00 0.06 0.01 78 1014.9
20260904162044 57 325 1.0 4.0 0.00 0.06 0.01 78 1014.9
20260904161617 57 325 2.0 4.0 0.00 0.06 0.01 76 1014.8
20260904161043 57 325 2.0 4.0 0.00 0.06 0.01 76 1014.7
20260904160544 57 325 2.0 4.0 0.00 0.06 0.01 71 1014.6
20260904160107 57 325 2.0 4.0 0.00 0.06 0.01 71 1014.5
20260904155544 57 325 1.0 4.0 0.00 0.06 0.01 69 1014.5
20260904155043 57 325 2.0 5.0 0.00 0.06 0.01 68 1014.4
20260904154605 56 325 2.0 5.0 0.00 0.06 0.01 68 1014.4
20260904154043 56 325 2.0 4.0 0.00 0.06 0.01 68 1014.4
20260904153543 56 328 2.0 5.0 0.00 0.06 0.01 69 1014.5
20260904153133 56 328 2.0 5.0 0.00 0.06 0.01 67 1014.4
20260904152543 56 321 2.0 4.0 0.00 0.06 0.01 68 1014.3
20260904152045 56 321 2.0 4.0 0.00 0.06 0.01 69 1014.2
20260904151557 56 321 2.0 5.0 0.00 0.06 0.01 68 1014.3
20260904151047 56 321 2.0 5.0 0.00 0.06 0.01 68 1014.3
20260904150543 56 321 2.0 5.0 0.00 0.06 0.01 69 1014.2
20260904150053 56 321 2.0 5.0 0.00 0.06 0.01 70 1014.1
20260904145547 56 321 2.0 4.0 0.00 0.06 0.01 70 1014.0
20260904145044 56 321 2.0 4.0 0.00 0.06 0.01 70 1014.0
20260904144603 56 321 2.0 4.0 0.00 0.06 0.01 70 1014.0
20260904144044 55 321 2.0 4.0 0.00 0.06 0.01 70 1014.0
20260904143544 55 321 2.0 4.0 0.00 0.06 0.01 73 1014.0
20260904143100 55 321 3.0 5.0 0.00 0.06 0.01 74 1013.9
20260904142546 55 313 3.0 5.0 0.00 0.06 0.01 74 1013.9
20260904142045 55 310 3.0 4.0 0.00 0.06 0.01 73 1013.8
20260904141557 55 311 2.0 4.0 0.00 0.06 0.01 73 1013.7
20260904141043 55 311 3.0 4.0 0.00 0.06 0.01 73 1013.7
20260904140544 55 316 3.0 4.0 0.00 0.06 0.01 73 1013.5
20260904140055 55 317 3.0 4.0 0.00 0.06 0.01 74 1013.6
20260904135544 55 317 2.0 3.0 0.00 0.06 0.01 74 1013.5
20260904135042 55 317 2.0 3.0 0.00 0.06 0.01 75 1013.5
20260904134553 55 317 2.0 4.0 0.00 0.06 0.01 74 1013.6
20260904134043 55 317 2.0 4.0 0.00 0.06 0.01 75 1013.5
20260904133543 54 317 2.0 4.0 0.00 0.06 0.01 75 1013.6
20260904133100 54 317 2.0 4.0 0.00 0.06 0.01 77 1013.5
20260904132544 54 317 3.0 5.0 0.00 0.06 0.01 79 1013.5
20260904132043 54 317 3.0 5.0 0.00 0.06 0.01 79 1013.5
20260904131619 54 317 3.0 6.0 0.00 0.06 0.01 80 1013.4
20260904131043 54 311 4.0 6.0 0.00 0.06 0.01 81 1013.4
20260904130543 53 306 4.0 5.0 0.00 0.06 0.01 82 1013.4
20260904130052 53 312 3.0 6.0 0.00 0.06 0.01 84 1013.3
20260904125543 52 313 3.0 7.0 0.01 0.06 0.01 87 1013.3
20260904125044 52 313 4.0 7.0 0.01 0.06 0.01 89 1013.3
20260904124555 52 321 4.0 7.0 0.01 0.06 0.01 91 1013.3
20260904124046 52 305 4.0 8.0 0.01 0.06 0.01 92 1013.3
20260904123543 52 319 4.0 9.0 0.01 0.06 0.01 93 1013.3
20260904123100 52 317 5.0 10.0 0.01 0.06 0.01 93 1013.4
20260904122543 52 312 6.0 10.0 0.01 0.06 0.01 94 1013.3
20260904122046 52 316 6.0 10.0 0.01 0.06 0.01 94 1013.4
20260904121600 52 317 6.0 9.0 0.01 0.06 0.01 94 1013.4
20260904121043 53 311 5.0 9.0 0.01 0.06 0.01 95 1013.3
20260904120543 53 317 4.0 8.0 0.01 0.06 0.01 95 1013.4
20260904115543 53 315 5.0 7.0 0.00 0.05 0.00 95 1013.4
20260904115043 53 318 4.0 7.0 0.00 0.05 0.00 95 1013.4
20260904114557 53 300 4.0 7.0 0.00 0.05 0.00 95 1013.4
20260904114043 53 313 4.0 7.0 0.00 0.05 0.00 95 1013.3
20260904113544 53 312 4.0 8.0 0.00 0.05 0.00 95 1013.1
20260904113057 53 313 4.0 8.0 0.00 0.05 0.00 95 1013.2
20260904112543 53 313 4.0 7.0 0.00 0.05 0.00 95 1013.1
20260904112045 53 311 4.0 7.0 0.00 0.05 0.00 95 1013.2
20260904111606 53 317 4.0 7.0 0.00 0.05 0.00 95 1013.2
20260904111046 53 315 4.0 7.0 0.00 0.05 0.00 95 1013.2
20260904110545 53 300 3.0 7.0 0.00 0.05 0.00 95 1013.2
20260904110104 53 312 3.0 6.0 0.00 0.05 0.00 95 1013.2
20260904105545 53 313 3.0 7.0 0.00 0.05 0.00 95 1013.3
20260904105046 53 313 4.0 7.0 0.00 0.05 0.00 95 1013.3
20260904104604 53 313 4.0 7.0 0.00 0.05 0.00 95 1013.2
20260904104051 53 315 3.0 8.0 0.00 0.05 0.00 95 1013.1
20260904103542 53 318 3.0 8.0 0.00 0.05 0.00 95 1013.1
20260904103105 54 306 4.0 7.0 0.00 0.05 0.00 95 1013.1
20260904102544 54 317 3.0 8.0 0.00 0.05 0.00 95 1013.0
20260904102045 54 319 4.0 9.0 0.00 0.05 0.00 95 1013.1
20260904101600 54 312 4.0 10.0 0.00 0.05 0.00 95 1013.0
20260904101043 54 331 3.0 10.0 0.00 0.05 0.00 95 1012.9
20260904100543 54 312 6.0 10.0 0.00 0.05 0.00 95 1013.0
20260904100218 54 316 5.0 9.0 0.00 0.05 0.00 95 1012.9
20260904095544 54 317 4.0 8.0 0.00 0.05 0.00 95 1012.9
20260904095044 54 313 4.0 7.0 0.00 0.05 0.00 95 1012.9
20260904094557 54 326 3.0 6.0 0.00 0.05 0.00 95 1012.9
20260904094043 54 317 2.0 8.0 0.00 0.05 0.00 95 1012.9
20260904093543 54 312 4.0 8.0 0.00 0.05 0.00 95 1012.8
20260904093104 54 321 3.0 6.0 0.00 0.05 0.00 95 1012.8
20260904092545 54 309 3.0 7.0 0.00 0.05 0.00 95 1012.8
20260904092048 54 320 3.0 8.0 0.00 0.05 0.00 95 1012.8
20260904091609 54 305 3.0 8.0 0.00 0.05 0.00 95 1012.8
20260904091045 54 321 4.0 8.0 0.00 0.05 0.00 95 1012.9
20260904090545 54 325 2.0 7.0 0.00 0.05 0.00 95 1012.8
20260904090057 54 296 4.0 8.0 0.00 0.05 0.00 95 1012.9
20260904085543 54 290 4.0 8.0 0.00 0.05 0.00 95 1012.9
20260904085046 54 321 4.0 8.0 0.00 0.05 0.00 95 1012.9
20260904084555 54 310 4.0 7.0 0.00 0.05 0.00 94 1012.9
20260904084042 54 312 4.0 7.0 0.00 0.05 0.00 95 1012.9
20260904083544 54 313 3.0 5.0 0.00 0.05 0.00 95 1012.9
20260904083111 54 314 2.0 5.0 0.00 0.05 0.00 95 1012.9
20260904082546 54 314 2.0 5.0 0.00 0.05 0.00 95 1012.9
20260904082048 54 314 3.0 5.0 0.00 0.05 0.00 95 1012.9
20260904081559 54 314 3.0 5.0 0.00 0.05 0.00 95 1012.8
20260904081043 54 315 0.0 2.0 0.00 0.05 0.00 95 1012.9
20260904080546 54 0 0.0 2.0 0.00 0.05 0.00 95 1012.9
20260904080053 54 0 0.0 3.0 0.00 0.05 0.00 95 1013.0
20260904075544 54 314 1.0 5.0 0.00 0.05 0.00 95 1013.1
20260904075048 54 315 1.0 8.0 0.00 0.05 0.00 95 1013.1
20260904074611 54 330 3.0 9.0 0.00 0.05 0.00 95 1013.0
20260904074044 54 310 4.0 10.0 0.00 0.05 0.00 94 1013.1
20260904073544 54 336 4.0 10.0 0.01 0.05 0.00 95 1013.1
20260904073102 54 315 5.0 10.0 0.01 0.05 0.00 94 1013.0
20260904072547 54 319 5.0 10.0 0.02 0.05 0.00 94 1013.1
20260904072043 54 283 5.0 12.0 0.03 0.05 0.00 94 1013.0
20260904071559 54 321 7.0 12.0 0.03 0.05 0.00 94 1013.0
20260904071043 54 307 6.0 11.0 0.03 0.05 0.00 94 1012.9
20260904070546 55 305 7.0 12.0 0.04 0.05 0.00 94 1013.0
20260904070126 55 311 7.0 12.0 0.04 0.05 0.00 94 1012.9
20260904065543 55 300 8.0 14.0 0.04 0.05 0.05 93 1012.9
20260904065046 56 310 8.0 14.0 0.04 0.05 0.05 93 1012.9
20260904064553 56 306 7.0 12.0 0.04 0.05 0.05 94 1012.8
20260904064043 57 296 6.0 12.0 0.04 0.05 0.05 93 1012.8
20260904063544 58 315 4.0 7.0 0.03 0.04 0.04 94 1012.9
20260904063105 58 311 2.0 5.0 0.03 0.04 0.04 94 1012.9
20260904062543 58 0 0.0 0.0 0.02 0.03 0.03 94 1013.0
20260904062043 58 0 0.0 5.0 0.01 0.02 0.02 94 1013.0
20260904061558 58 0 0.0 5.0 0.01 0.02 0.02 94 1012.9
20260904061044 58 158 1.0 6.0 0.01 0.02 0.02 94 1012.9
20260904060544 58 153 3.0 6.0 0.01 0.01 0.01 94 1012.9
20260904060100 58 149 3.0 6.0 0.01 0.01 0.01 94 1012.9
20260904055544 58 149 3.0 6.0 0.01 0.01 0.01 93 1012.9
20260904055045 58 149 3.0 6.0 0.01 0.01 0.01 93 1012.9
20260904054554 58 149 2.0 5.0 0.01 0.01 0.01 93 1012.9
20260904054044 58 149 2.0 5.0 0.01 0.01 0.01 93 1013.1
20260904053544 58 153 2.0 4.0 0.01 0.01 0.01 93 1013.1
20260904053101 58 153 1.0 3.0 0.01 0.01 0.01 93 1013.2
20260904052544 58 154 1.0 4.0 0.01 0.01 0.01 93 1013.3
20260904052044 58 154 1.0 4.0 0.01 0.01 0.01 93 1013.3
20260904051607 58 169 2.0 4.0 0.01 0.01 0.01 93 1013.2
20260904051043 59 130 1.0 4.0 0.01 0.01 0.01 92 1013.3
20260904050544 59 0 0.0 5.0 0.00 0.00 0.00 92 1013.4
20260904050057 59 0 0.0 5.0 0.00 0.00 0.00 92 1013.5
20260904045545 59 143 1.0 4.0 0.00 0.00 0.00 92 1013.5
20260904045045 59 137 1.0 5.0 0.00 0.00 0.00 92 1013.6
20260904044604 59 138 2.0 5.0 0.00 0.00 0.00 91 1013.6
20260904044043 59 121 2.0 5.0 0.00 0.00 0.00 91 1013.5
20260904043551 59 122 1.0 3.0 0.00 0.00 0.00 91 1013.5
20260904043102 59 129 0.0 2.0 0.00 0.00 0.00 91 1013.6
20260904042548 59 153 0.0 2.0 0.00 0.00 0.00 91 1013.6
20260904042044 59 0 0.0 2.0 0.00 0.00 0.00 91 1013.6
20260904041607 59 0 0.0 2.0 0.00 0.00 0.00 91 1013.5
20260904041044 59 0 0.0 2.0 0.00 0.00 0.00 90 1013.5
20260904040543 59 0 0.0 2.0 0.00 0.00 0.00 90 1013.4
20260904040110 59 0 0.0 3.0 0.00 0.00 0.00 90 1013.4
20260904035543 59 0 0.0 3.0 0.00 0.00 0.00 90 1013.3
20260904035044 59 136 0.0 3.0 0.00 0.00 0.00 90 1013.3
20260904034613 60 0 0.0 1.0 0.00 0.00 0.00 90 1013.4
20260904034045 60 0 0.0 1.0 0.00 0.00 0.00 89 1013.3
20260904033544 60 0 0.0 1.0 0.00 0.00 0.00 89 1013.3
20260904033104 60 0 0.0 1.0 0.00 0.00 0.00 89 1013.4
20260904032543 60 0 0.0 1.0 0.00 0.00 0.00 89 1013.3
20260904032043 60 0 0.0 1.0 0.00 0.00 0.00 89 1013.3
20260904031558 60 0 0.0 1.0 0.00 0.00 0.00 89 1013.2
20260904031044 60 0 0.0 1.0 0.00 0.00 0.00 89 1013.2
20260904030544 60 0 0.0 2.0 0.00 0.00 0.00 89 1013.3
20260904030056 60 0 0.0 3.0 0.00 0.00 0.00 89 1013.2
20260904025545 60 0 0.0 3.0 0.00 0.00 0.00 88 1013.2
20260904025049 60 252 0.0 2.0 0.00 0.00 0.00 88 1013.2
20260904024549 60 0 0.0 1.0 0.00 0.00 0.00 87 1013.3
20260904024048 60 0 0.0 1.0 0.00 0.00 0.00 87 1013.4
20260904023544 60 0 0.0 2.0 0.00 0.00 0.00 87 1013.4
20260904023100 61 0 0.0 2.0 0.00 0.00 0.00 86 1013.3
20260904022600 61 0 0.0 2.0 0.00 0.00 0.00 86 1013.4
20260904022045 61 0 0.0 2.0 0.00 0.00 0.00 86 1013.5
20260904021606 61 0 0.0 3.0 0.00 0.00 0.00 85 1013.5
20260904021044 61 0 0.0 3.0 0.00 0.00 0.00 85 1013.4
20260904020545 61 238 0.0 3.0 0.00 0.00 0.00 85 1013.4
20260904020057 61 207 0.0 3.0 0.00 0.00 0.00 84 1013.5
20260904015545 61 0 1.0 3.0 0.00 0.00 0.00 83 1013.5
20260904015045 62 0 0.0 3.0 0.00 0.00 0.00 83 1013.5
20260904014640 62 0 0.0 2.0 0.00 0.00 0.00 82 1013.5
20260904014045 62 0 0.0 3.0 0.00 0.00 0.00 81 1013.7
20260904013545 62 0 0.0 4.0 0.00 0.00 0.00 81 1013.7
20260904013059 62 0 2.0 4.0 0.00 0.00 0.00 80 1013.7
20260904012545 63 229 1.0 3.0 0.00 0.00 0.00 80 1013.7
20260904012045 63 0 1.0 4.0 0.00 0.00 0.00 79 1013.8
20260904011619 63 0 1.0 4.0 0.00 0.00 0.00 79 1013.7
20260904011046 63 250 1.0 3.0 0.00 0.00 0.00 79 1013.7
20260904010544 63 250 0.0 2.0 0.00 0.00 0.00 78 1013.7
20260904010103 64 0 0.0 3.0 0.00 0.00 0.00 77 1013.8
20260904005548 64 321 1.0 4.0 0.00 0.00 0.00 76 1013.8
20260904005044 64 321 1.0 4.0 0.00 0.00 0.00 76 1013.8
20260904004605 65 311 0.0 3.0 0.00 0.00 0.00 75 1013.8
20260904004045 65 311 0.0 5.0 0.00 0.00 0.00 74 1013.7
20260904003543 65 247 1.0 5.0 0.00 0.00 0.00 74 1013.8
20260904003104 65 0 1.0 3.0 0.00 0.00 0.00 74 1013.7
20260904002545 65 275 0.0 4.0 0.00 0.00 0.00 73 1013.8
20260904002047 66 0 2.0 4.0 0.00 0.00 0.00 72 1013.8
20260904001559 66 290 1.0 4.0 0.00 0.00 0.00 72 1013.8
20260904001044 66 282 2.0 4.0 0.00 0.00 0.00 71 1013.7
20260904000546 67 234 1.0 4.0 0.00 0.00 0.00 70 1013.7
20260904000058 67 242 1.0 3.0 0.00 0.00 0.00 71 1013.9
20260903235544 67 282 1.0 4.0 0.00 0.00 0.00 70 1013.9
20260903235045 67 282 1.0 4.0 0.00 0.00 0.00 69 1013.9
20260903234604 68 342 1.0 3.0 0.00 0.00 0.00 69 1013.9
20260903234045 68 0 1.0 6.0 0.00 0.00 0.00 68 1013.9
20260903233545 69 349 1.0 6.0 0.00 0.00 0.00 68 1014.0
20260903233113 69 232 2.0 4.0 0.00 0.00 0.00 67 1013.9
20260903232544 69 297 2.0 7.0 0.00 0.00 0.00 67 1014.0
20260903232045 70 254 2.0 7.0 0.00 0.00 0.00 65 1014.0
20260903231557 70 220 1.0 4.0 0.00 0.00 0.00 64 1014.1
20260903231044 70 253 1.0 3.0 0.00 0.00 0.00 64 1014.2
20260903230544 70 180 1.0 4.0 0.00 0.00 0.00 64 1014.1
20260903230057 71 98 1.0 4.0 0.00 0.00 0.00 63 1014.2
20260903225544 71 290 2.0 7.0 0.00 0.00 0.00 64 1014.1
20260903225044 71 223 1.0 7.0 0.00 0.00 0.00 64 1014.2
20260903224602 71 255 1.0 4.0 0.00 0.00 0.00 65 1014.3
20260903224047 71 300 1.0 4.0 0.00 0.00 0.00 65 1014.4
20260903223544 71 312 2.0 7.0 0.00 0.00 0.00 64 1014.3
20260903223114 72 232 1.0 9.0 0.00 0.00 0.00 62 1014.4
20260903222543 72 281 0.0 9.0 0.00 0.00 0.00 63 1014.4
20260903222045 72 311 2.0 4.0 0.00 0.00 0.00 62 1014.4
20260903221556 72 185 1.0 4.0 0.00 0.00 0.00 61 1014.5
20260903221044 72 0 1.0 4.0 0.00 0.00 0.00 62 1014.6
20260903220544 72 209 1.0 4.0 0.00 0.00 0.00 62 1014.6
20260903220117 72 0 0.0 4.0 0.00 0.00 0.00 64 1014.7
20260903215545 72 240 1.0 4.0 0.00 0.00 0.00 62 1014.7
20260903215044 72 133 0.0 9.0 0.00 0.00 0.00 63 1014.9
20260903214553 71 210 1.0 9.0 0.00 0.00 0.00 64 1014.9
20260903214044 72 222 2.0 7.0 0.00 0.00 0.00 63 1015.0
20260903213544 71 93 1.0 5.0 0.00 0.00 0.00 65 1014.8
20260903213100 70 281 1.0 5.0 0.00 0.00 0.00 66 1014.9
20260903212548 70 279 1.0 5.0 0.00 0.00 0.00 66 1015.0